Tracking 27112 objects as of 27-Mar-2023
HD Live streaming from Space Station
objects crossing your sky now

NOAA 8

Track NOAA 8 now!
10-day predictions
NOAA 8 is classified as:


NORAD ID: 13923
Int'l Code: 1983-022A
Perigee: 790.8 km
Apogee: 814.0 km
Inclination: 98.7 °
Period: 100.8 minutes
Semi major axis: 7173 km
RCS: 5.054 m2 (large)
Launch date: March 28, 1983
Source: United States (US)
Launch site: AIR FORCE WESTERN TEST RANGE (AFWTR)
Your satellite tracking list
Your tracking list is empty




NASA's NSSDC Master Catalog

Two Line Element Set (TLE):
1 13923U 83022A   23085.84052126  .00000417  00000-0  18231-3 0  9999
2 13923  98.7109  80.6264 0016181 102.8224 257.4766 14.28942331 82998
Source of the keplerian elements: AFSPC